Weather Roundup
Issued by NWS

Home | Current Version | Previous Version | Graphics & Text | Print | Product List | Glossary Off
Versions: 1 2 3 4 5 6 7 8 9 10 11 12 13 14 15 16 17 18 19 20 21 22 23 24 25 26 27 28 29 30 31 32 33 34 35 36 37 38 39 40 41 42 43 44 45 46 47 48 49 50

000
NZUS93 KARX 240110
HRRWXR

CURRENT HOURLY OBSERVATIONS ACROSS
MUCH OF THE UPPER MISSISSIPPI VALLEY
NATIONAL WEATHER SERVICE LA CROSSE WI
800 PM CDT THU OCT 23 2014


...SOUTHEAST MINNESOTA...


CITY           SKY/WX    TMP DP  RH WIND       PRES   REMARKS
ROCHESTER      FAIR      49  48  97 S8        30.03R FOG
ROCHESTER/MAYO FAIR      51  49  95 SE9       30.02R
WINONA         CLOUDY    52  50  93 SE3       30.03S FOG
AUSTIN         CLEAR     52  50  93 SE5       30.02R
ALBERT LEA     CLEAR     54  48  82 CALM      30.01R
DODGE CENTER   CLEAR     50  48  93 SE6       30.01S
PRESTON        CLEAR     47  46  96 S6        30.04R FOG
OWATONNA       CLEAR     52  45  76 SE8       30.00R
FARIBAULT      CLEAR     45  39  81 CALM      29.99S
$$

...ELSEWHERE IN MINNESOTA...


CITY           SKY/WX    TMP DP  RH WIND       PRES   REMARKS
MINNEAPOLIS    CLEAR     57  51  80 SE9       29.98R
INTNL FALLS    CLEAR     44  35  70 CALM      29.84S
DULUTH         PTCLDY    51  47  86 S7        29.94S
RED WING       CLEAR     50  48  93 E3        30.00S FOG
REDWOOD FALLS  CLEAR     55  40  56 SW10      29.95S
MANKATO        CLEAR     55  36  47 SE6       29.98S
WORTHINGTON    CLEAR     55  43  62 S7        30.00R
FAIRMONT       CLEAR     52  34  50 SW5       30.00R
$$

...SOUTHWEST WISCONSIN...


CITY           SKY/WX    TMP DP  RH WIND       PRES   REMARKS
LA CROSSE      NOT AVBL
PRAIRIE DU CHI CLOUDY    50  49  94 CALM      30.05R FOG
BOSCOBEL       CLOUDY    50  48  93 W3        30.06R FOG
LONE ROCK      CLOUDY    53  48  83 CALM      30.05S HAZE
PLATTEVILLE    CLOUDY    50  49  96 CALM      30.06R
FORT MC COY    CLOUDY    47  46  99 CALM      30.05S FOG
CAMP DOUGLAS   CLOUDY    46  46 100 CALM      30.04S FOG
VIROQUA        CLOUDY    47  47 100 CALM      30.04R VSB 1/4
WIS DELLS      CLOUDY    47  46  94 W3        30.04S FOG
$$

...ELSEWHERE IN WISCONSIN...


CITY           SKY/WX    TMP DP  RH WIND       PRES   REMARKS
MILWAUKEE      CLOUDY    53  49  86 S6        30.07R FOG
MADISON        CLOUDY    52  49  89 SW3       30.05R
GREEN BAY      CLOUDY    49  48  97 S5        30.04F FOG
EAU CLAIRE     CLOUDY    52  50  93 S5        30.02R
BLACK RVR FLS  FOG       48  48 100 CALM      30.04R VSB 1/4
MEDFORD        FOG       46  46 100 CALM      30.03S VSB 1/2
WAUSAU         FOG       46  46 100 W3        30.03R VSB 1/2
WIS RAPIDS     CLOUDY    47  46  97 SW3       30.06R FOG
MARSHFIELD     FOG       47  47 100 SW5       30.04R VSB 1/4
RICE LAKE      CLEAR     47  46  95 SE6       30.01S FOG
$$

...NORTHEAST IOWA...


CITY           SKY/WX    TMP DP  RH WIND       PRES   REMARKS
DECORAH        CLOUDY    50  50 100 CALM      30.03S FOG
MASON CITY     CLEAR     48  43  82 SE6       30.03R
CHARLES CITY   PTCLDY    50  50 100 SE6       30.04R FOG
OELWEIN        FOG       48  48 100 E3        30.05S VSB 1/2
$$

...ELSEWHERE IN IOWA...


CITY           SKY/WX    TMP DP  RH WIND       PRES   REMARKS
DES MOINES     PTCLDY    60  55  83 S8        30.03R
IOWA CITY      FOG       47  47 100 CALM      30.06R VSB 1/4
FORT DODGE     CLEAR     50  43  76 CALM      30.03R
$$

...NORTHERN ILLINOIS...


CITY           SKY/WX    TMP DP  RH WIND       PRES   REMARKS
CHICAGO-OHARE  CLOUDY    55  42  61 S5        30.07R
CHICAGO-MIDWAY CLOUDY    58  41  53 S8        30.08R
MOLINE         CLOUDY    57  47  69 CALM      30.05R
ROCKFORD       CLOUDY    51  48  89 S6        30.09S
PEORIA         CLOUDY    57  45  64 S8        30.08R
$$

NOTE: "FAIR" INDICATES FEW OR NO CLOUDS BELOW 12,000 FEET WITH NO
SIGNIFICANT WEATHER AND/OR OBSTRUCTIONS TO VISIBILITY. WIND
SPEEDS ARE IN MILES-PER-HOUR.



USA.gov is the U.S. government's official web portal to all federal, state and local government web resources and services.